Test XHTML 1.0 Strict Page for WU-History Testing
Histórico de la Estación METEOCORUÑA
 
Diario Datos del Octubre 19, 2018 Unidades:  Metrico    Inglés   Ambos
« Prev Dia
Sig Dia »
Diario Semanal Mensual Anual Rango
  Actual: Max: Min: Media:
Temp: -9.3 °C -17.8 °C -9.6 °C -9.6 °C
Rocío: -9.6 °C -17.8 °C -9.9 °C -9.9 °C
Humedad: 96 % Humidity % 96 % 95 %
Vel. viento: 7.7 km/h 0 km/h 2.6 km/h 11.9 km/h
Racha: 18.2 km/h 0 km/h - -
Viento:NNW - - SE
Presión: 34486.4 hPa 0 hPa 34486.4 hPa -
Lluvia: 0 mm      
Historical Graphs
 
 
Busqueda de Octubre 19, 2018
Hora Temp Rocío Presión Viento Vel. viento Racha Humedad Ratio lluvia (/hora) Radiación
-17.8 °C -17.8 °C 0 hPa Calm     Humidity % 0 mm SolarRadiationWatts/m^2 W/m2
00:00 -9.4 °C -9.8 °C 34496.6 hPa North 12.9 km/h 31.1 km/h 96 % 0 mm 0.00 W/m2
00:05 -9.4 °C -9.8 °C 34500 hPa NE 10.3 km/h 20.8 km/h 96 % 0 mm 0.00 W/m2
00:10 -9.4 °C -9.8 °C 34496.6 hPa North 7.7 km/h 38.8 km/h 96 % 0 mm 0.00 W/m2
00:15 -9.5 °C -9.8 °C 34496.6 hPa NNE 10.3 km/h 31.1 km/h 96 % 0 mm 0.00 W/m2
00:20 -9.4 °C -9.8 °C 34496.6 hPa NNE 10.3 km/h 18.2 km/h 96 % 0 mm 0.00 W/m2
00:25 -9.4 °C -9.8 °C 34496.6 hPa North 7.7 km/h 25.9 km/h 96 % 0 mm 0.00 W/m2
00:30 -9.4 °C -9.8 °C 34496.6 hPa NNE 10.3 km/h 23.3 km/h 96 % 0 mm 0.00 W/m2
00:35 -9.4 °C -9.8 °C 34496.6 hPa NE 10.3 km/h 23.3 km/h 96 % 0 mm 0.00 W/m2
00:40 -9.4 °C -9.8 °C 34493.2 hPa NNE 10.3 km/h 23.3 km/h 96 % 0 mm 0.00 W/m2
00:45 -9.4 °C -9.8 °C 34493.2 hPa North 12.9 km/h 25.9 km/h 96 % 0 mm 0.00 W/m2
00:50 -9.3 °C -9.7 °C 34493.2 hPa NNE 15.6 km/h 36.2 km/h 96 % 0 mm 0.00 W/m2
00:55 -9.3 °C -9.7 °C 34496.6 hPa North 15.6 km/h 28.5 km/h 96 % 0 mm 0.00 W/m2
01:00 -9.3 °C -9.7 °C 34496.6 hPa NNW 12.9 km/h 31.1 km/h 96 % 0 mm 0.00 W/m2
01:05 -9.3 °C -9.7 °C 34493.2 hPa NW 12.9 km/h 41.4 km/h 96 % 0 mm 0.00 W/m2
01:10 -9.3 °C -9.6 °C 34486.4 hPa NW 23.3 km/h 51.8 km/h 96 % 0 mm 0.00 W/m2
01:15 -9.3 °C -9.7 °C 34486.4 hPa NW 28.5 km/h 46.7 km/h 96 % 0 mm 0.00 W/m2
01:20 -9.3 °C -9.6 °C 34493.2 hPa NNW 25.9 km/h 46.7 km/h 97 % 0 mm 0.00 W/m2
01:25 -9.3 °C -9.6 °C 34493.2 hPa NW 23.3 km/h 38.8 km/h 97 % 0 mm 0.00 W/m2
01:30 -9.3 °C -9.6 °C 34489.8 hPa NNW 23.3 km/h 44.1 km/h 97 % 0 mm 0.00 W/m2
01:35 -9.3 °C -9.6 °C 34489.8 hPa NNW 25.9 km/h 46.7 km/h 97 % 0 mm 0.00 W/m2
01:40 -9.3 °C -9.6 °C 34489.8 hPa NNW 23.3 km/h 31.1 km/h 97 % 0 mm 0.00 W/m2
01:45 -9.3 °C -9.6 °C 34493.2 hPa NNW 18.2 km/h 31.1 km/h 97 % 0 mm 0.00 W/m2
01:50 -9.3 °C -9.6 °C 34493.2 hPa NNW 15.6 km/h 41.4 km/h 97 % 0 mm 0.00 W/m2
01:55 -9.3 °C -9.6 °C 34493.2 hPa NNW 20.8 km/h 41.4 km/h 97 % 0 mm 0.00 W/m2
02:00 -9.3 °C -9.6 °C 34496.6 hPa North 23.3 km/h 28.5 km/h 97 % 0 mm 0.00 W/m2
02:05 -9.3 °C -9.6 °C 34493.2 hPa North 18.2 km/h 23.3 km/h 97 % 0 mm 0.00 W/m2
02:10 -9.3 °C -9.6 °C 34496.6 hPa North 12.9 km/h 25.9 km/h 97 % 0 mm 0.00 W/m2
02:15 -9.3 °C -9.6 °C 34493.2 hPa NNE 12.9 km/h 25.9 km/h 97 % 0 mm 0.00 W/m2
02:20 -9.4 °C -9.7 °C 34496.6 hPa North 10.3 km/h 31.1 km/h 97 % 0 mm 0.00 W/m2
02:25 -9.4 °C -9.8 °C 34496.6 hPa NNE 10.3 km/h 20.8 km/h 96 % 0 mm 0.00 W/m2
02:30 -9.4 °C -9.8 °C 34496.6 hPa North 10.3 km/h 18.2 km/h 96 % 0 mm 0.00 W/m2
02:35 -9.4 °C -9.8 °C 34500 hPa NNE 7.7 km/h 20.8 km/h 96 % 0 mm 0.00 W/m2
02:40 -9.4 °C -9.8 °C 34500 hPa NNW 7.7 km/h 23.3 km/h 96 % 0 mm 0.00 W/m2
02:45 -9.5 °C -9.8 °C 34496.6 hPa North 10.3 km/h 15.6 km/h 96 % 0 mm 0.00 W/m2
02:50 -9.5 °C -9.8 °C 34496.6 hPa North 5.1 km/h 12.9 km/h 97 % 0 mm 0.00 W/m2
02:55 -9.6 °C -9.8 °C 34496.6 hPa North 2.6 km/h 10.3 km/h 97 % 0 mm 0.00 W/m2
03:00 -9.6 °C -9.8 °C 34500 hPa North 2.6 km/h 7.7 km/h 97 % 0 mm 0.00 W/m2
03:05 -9.6 °C -9.9 °C 34500 hPa North 2.6 km/h 7.7 km/h 96 % 0 mm 0.00 W/m2
03:10 -9.6 °C -9.8 °C 34496.6 hPa NNE 5.1 km/h 12.9 km/h 97 % 0 mm 0.00 W/m2
03:15 -9.6 °C -9.8 °C 34496.6 hPa NNE 5.1 km/h 20.8 km/h 97 % 0 mm 0.00 W/m2
03:20 -9.6 °C -9.8 °C 34500 hPa NE 5.1 km/h 12.9 km/h 97 % 0 mm 0.00 W/m2
03:25 -9.6 °C -9.9 °C 34500 hPa NNE 7.7 km/h 18.2 km/h 96 % 0 mm 0.00 W/m2
03:30 -9.5 °C -9.8 °C 34500 hPa North 7.7 km/h 20.8 km/h 97 % 0 mm 0.00 W/m2
03:35 -9.5 °C -9.8 °C 34500 hPa NNW 10.3 km/h 23.3 km/h 97 % 0 mm 0.00 W/m2
03:40 -9.5 °C -9.8 °C 34500 hPa NNE 12.9 km/h 15.6 km/h 97 % 0 mm 0.00 W/m2
03:45 -9.5 °C -9.8 °C 34500 hPa NNE 7.7 km/h 12.9 km/h 97 % 0 mm 0.00 W/m2
03:50 -9.5 °C -9.8 °C 34496.6 hPa NNE 7.7 km/h 12.9 km/h 97 % 0 mm 0.00 W/m2
03:55 -9.5 °C -9.8 °C 34496.6 hPa NNE 7.7 km/h 18.2 km/h 97 % 0 mm 0.00 W/m2
04:00 -9.5 °C -9.8 °C 34489.8 hPa NNE 10.3 km/h 23.3 km/h 97 % 0 mm 0.00 W/m2
04:05 -9.4 °C -9.8 °C 34489.8 hPa NE 10.3 km/h 18.2 km/h 96 % 0 mm 0.00 W/m2
04:10 -9.4 °C -9.8 °C 34489.8 hPa NNE 7.7 km/h 18.2 km/h 96 % 0 mm 0.00 W/m2
04:15 -9.3 °C -9.7 °C 34489.8 hPa NNE 7.7 km/h 12.9 km/h 96 % 0 mm 0.00 W/m2
04:20 -9.3 °C -9.6 °C 34486.4 hPa NNW 7.7 km/h 18.2 km/h 96 % 0 mm 0.00 W/m2
Meteocoruña
Agradecimientos a Weather Underground - 1.75 mb